Time,TemperatureF,DewpointF,PressureIn,WindDirection,WindDirectionDegrees,WindSpeedMPH,WindSpeedGustMPH,Humidity,HourlyPrecipIn,Conditions,Clouds,dailyrainin,SoftwareType,DateUTC
2014-12-18 00:09:00,7.6,3.5,30.27,NW,312,0.0,0.0,83,0.00,,,0.00,Wunderground v.1.15,2014-12-18 07:09:00,
2014-12-18 00:19:00,7.4,3.3,30.27,NW,312,0.0,0.0,83,0.00,,,0.00,Wunderground v.1.15,2014-12-18 07:19:00,
2014-12-18 00:29:00,7.0,2.7,30.27,NW,312,0.0,0.0,82,0.00,,,0.00,Wunderground v.1.15,2014-12-18 07:29:00,
2014-12-18 00:39:00,6.9,2.6,30.27,NW,312,0.0,0.0,82,0.00,,,0.00,Wunderground v.1.15,2014-12-18 07:39:00,
2014-12-18 00:49:00,6.7,2.4,30.27,NW,312,0.0,0.0,82,0.00,,,0.00,Wunderground v.1.15,2014-12-18 07:49:00,
2014-12-18 00:59:00,6.3,2.0,30.27,NW,312,0.0,0.0,82,0.00,,,0.00,Wunderground v.1.15,2014-12-18 07:59:00,
2014-12-18 01:09:00,6.0,1.7,30.27,NW,312,0.0,0.0,82,0.00,,,0.00,Wunderground v.1.15,2014-12-18 08:09:00,
2014-12-18 01:20:00,5.8,1.5,30.27,NW,312,0.0,0.0,82,0.00,,,0.00,Wunderground v.1.15,2014-12-18 08:20:00,
2014-12-18 01:29:00,5.4,1.1,30.27,NW,312,0.0,0.0,82,0.00,,,0.00,Wunderground v.1.15,2014-12-18 08:29:00,
2014-12-18 01:39:00,5.2,0.6,30.27,NW,312,0.0,0.0,81,0.00,,,0.00,Wunderground v.1.15,2014-12-18 08:39:00,
2014-12-18 01:49:00,4.7,0.2,30.28,NW,312,0.0,0.0,81,0.00,,,0.00,Wunderground v.1.15,2014-12-18 08:49:00,
2014-12-18 01:59:00,3.9,-0.6,30.28,NW,312,0.0,0.0,81,0.00,,,0.00,Wunderground v.1.15,2014-12-18 08:59:00,
2014-12-18 02:10:00,3.5,-1.0,30.29,NW,312,0.0,0.0,81,0.00,,,0.00,Wunderground v.1.15,2014-12-18 09:10:00,
2014-12-18 02:20:00,3.2,-1.6,30.29,NW,312,0.0,0.0,80,0.00,,,0.00,Wunderground v.1.15,2014-12-18 09:20:00,
2014-12-18 02:29:00,3.0,-1.8,30.29,NW,312,0.0,0.0,80,0.00,,,0.00,Wunderground v.1.15,2014-12-18 09:29:00,
2014-12-18 02:39:00,2.6,-2.2,30.29,NW,312,0.0,0.0,80,0.00,,,0.00,Wunderground v.1.15,2014-12-18 09:39:00,
2014-12-18 02:49:00,1.8,-3.2,30.29,NW,312,0.0,0.0,79,0.00,,,0.00,Wunderground v.1.15,2014-12-18 09:49:00,
2014-12-18 02:59:00,1.3,-3.7,30.29,NW,312,0.0,0.0,79,0.00,,,0.00,Wunderground v.1.15,2014-12-18 09:59:00,
2014-12-18 03:09:00,0.9,-4.1,30.29,NW,312,0.0,0.0,79,0.00,,,0.00,Wunderground v.1.15,2014-12-18 10:09:00,
2014-12-18 03:19:00,0.7,-4.3,30.29,NW,312,0.0,0.0,79,0.00,,,0.00,Wunderground v.1.15,2014-12-18 10:19:00,
2014-12-18 03:29:00,0.5,-4.5,30.29,NW,312,0.0,0.0,79,0.00,,,0.00,Wunderground v.1.15,2014-12-18 10:29:00,
2014-12-18 03:39:00,0.3,-4.7,30.28,NW,312,0.0,0.0,79,0.00,,,0.00,Wunderground v.1.15,2014-12-18 10:39:00,
2014-12-18 03:49:00,0.5,-4.5,30.29,NW,312,0.0,0.0,79,0.00,,,0.00,Wunderground v.1.15,2014-12-18 10:49:00,
2014-12-18 03:59:00,0.7,-4.3,30.29,NW,312,0.0,0.0,79,0.00,,,0.00,Wunderground v.1.15,2014-12-18 10:59:00,
2014-12-18 04:09:00,0.3,-4.7,30.29,NW,312,0.0,0.0,79,0.00,,,0.00,Wunderground v.1.15,2014-12-18 11:09:00,
2014-12-18 04:19:00,-0.2,-5.4,30.30,NW,312,0.0,0.0,78,0.00,,,0.00,Wunderground v.1.15,2014-12-18 11:19:00,
2014-12-18 04:29:00,-1.0,-6.2,30.30,NW,312,0.0,0.0,78,0.00,,,0.00,Wunderground v.1.15,2014-12-18 11:29:00,
2014-12-18 04:39:00,-1.2,-6.4,30.30,NW,312,0.0,0.0,78,0.00,,,0.00,Wunderground v.1.15,2014-12-18 11:39:00,
2014-12-18 04:50:00,-0.8,-6.0,30.30,NW,312,0.0,0.0,78,0.00,,,0.00,Wunderground v.1.15,2014-12-18 11:50:00,
2014-12-18 04:59:00,-0.6,-5.8,30.30,NW,312,0.0,0.0,78,0.00,,,0.00,Wunderground v.1.15,2014-12-18 11:59:00,
2014-12-18 05:09:00,-1.0,-6.2,30.30,NW,312,0.0,0.0,78,0.00,,,0.00,Wunderground v.1.15,2014-12-18 12:09:00,
2014-12-18 05:20:00,-1.2,-6.4,30.30,NW,312,0.0,0.0,78,0.00,,,0.00,Wunderground v.1.15,2014-12-18 12:20:00,
2014-12-18 05:29:00,-0.8,-5.7,30.30,NW,312,0.0,0.0,79,0.00,,,0.00,Wunderground v.1.15,2014-12-18 12:29:00,
2014-12-18 05:39:00,-0.4,-5.6,30.31,NW,312,0.0,0.0,78,0.00,,,0.00,Wunderground v.1.15,2014-12-18 12:39:00,
2014-12-18 05:49:00,-0.4,-5.6,30.32,NW,312,0.0,0.0,78,0.00,,,0.00,Wunderground v.1.15,2014-12-18 12:49:00,
2014-12-18 05:59:00,-1.6,-7.1,30.32,NW,312,0.0,0.0,77,0.00,,,0.00,Wunderground v.1.15,2014-12-18 12:59:00,
2014-12-18 06:09:00,-1.6,-6.8,30.32,NW,312,0.0,0.0,78,0.00,,,0.00,Wunderground v.1.15,2014-12-18 13:09:00,
2014-12-18 06:19:00,-1.4,-6.6,30.33,NW,312,0.0,0.0,78,0.00,,,0.00,Wunderground v.1.15,2014-12-18 13:19:00,
2014-12-18 06:29:00,-1.4,-6.9,30.33,NW,312,0.0,0.0,77,0.00,,,0.00,Wunderground v.1.15,2014-12-18 13:29:00,
2014-12-18 06:39:00,-1.4,-6.6,30.33,NW,312,0.0,0.0,78,0.00,,,0.00,Wunderground v.1.15,2014-12-18 13:39:00,
2014-12-18 06:49:00,-1.4,-6.9,30.34,NW,312,0.0,0.0,77,0.00,,,0.00,Wunderground v.1.15,2014-12-18 13:49:00,
2014-12-18 06:59:00,-2.2,-7.6,30.34,NW,312,0.0,0.0,77,0.00,,,0.00,Wunderground v.1.15,2014-12-18 13:59:00,
2014-12-18 07:09:00,-2.6,-8.0,30.34,NW,312,0.0,0.0,77,0.00,,,0.00,Wunderground v.1.15,2014-12-18 14:09:00,
2014-12-18 07:19:00,-2.6,-8.0,30.34,NW,312,0.0,0.0,77,0.00,,,0.00,Wunderground v.1.15,2014-12-18 14:19:00,
2014-12-18 07:29:00,-2.2,-7.4,30.34,NW,312,0.0,0.0,78,0.00,,,0.00,Wunderground v.1.15,2014-12-18 14:29:00,
2014-12-18 07:39:00,-1.0,-6.2,30.35,NW,312,0.0,0.0,78,0.00,,,0.00,Wunderground v.1.15,2014-12-18 14:39:00,
2014-12-18 07:49:00,-0.6,-6.1,30.35,NW,312,0.0,0.0,77,0.00,,,0.00,Wunderground v.1.15,2014-12-18 14:49:00,
2014-12-18 07:59:00,0.1,-4.9,30.35,NW,312,0.0,0.0,79,0.00,,,0.00,Wunderground v.1.15,2014-12-18 14:59:00,
2014-12-18 08:09:00,1.3,-4.0,30.36,NW,312,0.0,0.0,78,0.00,,,0.00,Wunderground v.1.15,2014-12-18 15:09:00,
2014-12-18 08:19:00,1.3,-4.0,30.36,NW,312,0.0,0.0,78,0.00,,,0.00,Wunderground v.1.15,2014-12-18 15:19:00,
2014-12-18 08:39:00,3.4,-1.4,30.36,NW,312,0.0,0.0,80,0.00,,,0.00,Wunderground v.1.15,2014-12-18 15:39:00,
2014-12-18 08:50:00,4.7,-0.1,30.37,NW,312,0.0,0.0,80,0.00,,,0.00,Wunderground v.1.15,2014-12-18 15:50:00,
2014-12-18 08:59:00,6.3,1.7,30.37,NW,312,0.0,0.0,81,0.00,,,0.00,Wunderground v.1.15,2014-12-18 15:59:00,
2014-12-18 09:09:00,8.3,3.9,30.37,NW,312,0.0,0.0,82,0.00,,,0.00,Wunderground v.1.15,2014-12-18 16:09:00,
2014-12-18 09:19:00,11.1,7.2,30.38,NW,312,0.0,0.0,84,0.00,,,0.00,Wunderground v.1.15,2014-12-18 16:19:00,
2014-12-18 09:29:00,14.4,10.7,30.38,NW,312,0.0,0.0,85,0.00,,,0.00,Wunderground v.1.15,2014-12-18 16:29:00,
2014-12-18 09:39:00,13.6,9.7,30.38,NW,312,0.0,0.0,84,0.00,,,0.00,Wunderground v.1.15,2014-12-18 16:39:00,
2014-12-18 09:49:00,14.0,10.3,30.38,NW,312,0.0,0.0,85,0.00,,,0.00,Wunderground v.1.15,2014-12-18 16:49:00,
2014-12-18 09:59:00,15.2,11.8,30.38,NW,312,0.0,0.0,86,0.00,,,0.00,Wunderground v.1.15,2014-12-18 16:59:00,
2014-12-18 10:09:00,15.7,12.3,30.39,NW,312,0.0,0.0,86,0.00,,,0.00,Wunderground v.1.15,2014-12-18 17:09:00,
2014-12-18 10:19:00,15.9,12.5,30.39,NW,312,0.0,0.0,86,0.00,,,0.00,Wunderground v.1.15,2014-12-18 17:19:00,
2014-12-18 10:29:00,16.9,13.4,30.39,NW,312,0.0,0.0,86,0.00,,,0.00,Wunderground v.1.15,2014-12-18 17:29:00,
2014-12-18 10:39:00,17.5,14.0,30.38,NW,312,0.0,0.0,86,0.00,,,0.00,Wunderground v.1.15,2014-12-18 17:39:00,
2014-12-18 10:49:00,18.3,15.1,30.37,NW,312,0.0,0.0,87,0.00,,,0.00,Wunderground v.1.15,2014-12-18 17:49:00,
2014-12-18 10:59:00,19.1,15.9,30.37,NW,312,0.0,0.0,87,0.00,,,0.00,Wunderground v.1.15,2014-12-18 17:59:00,
2014-12-18 11:10:00,20.8,17.5,30.37,NW,312,0.0,0.0,87,0.00,,,0.00,Wunderground v.1.15,2014-12-18 18:10:00,
2014-12-18 11:19:00,22.1,18.8,30.37,NW,312,0.0,0.0,87,0.00,,,0.00,Wunderground v.1.15,2014-12-18 18:19:00,
2014-12-18 11:29:00,23.9,20.9,30.37,NW,312,0.0,0.0,88,0.00,,,0.00,Wunderground v.1.15,2014-12-18 18:29:00,
2014-12-18 11:39:00,23.5,20.2,30.36,NW,312,0.0,0.0,87,0.00,,,0.00,Wunderground v.1.15,2014-12-18 18:39:00,
2014-12-18 11:49:00,24.4,21.4,30.36,NW,312,0.0,0.0,88,0.00,,,0.00,Wunderground v.1.15,2014-12-18 18:49:00,
2014-12-18 11:59:00,25.4,22.1,30.36,NW,312,0.0,0.0,87,0.00,,,0.00,Wunderground v.1.15,2014-12-18 18:59:00,
2014-12-18 12:10:00,26.7,23.4,30.35,West,281,2.0,2.0,87,0.00,,,0.00,Wunderground v.1.15,2014-12-18 19:10:00,
2014-12-18 12:19:00,27.9,24.3,30.34,West,259,2.0,2.0,86,0.00,,,0.00,Wunderground v.1.15,2014-12-18 19:19:00,
2014-12-18 12:30:00,29.8,26.1,30.34,West,260,0.0,0.0,86,0.00,,,0.00,Wunderground v.1.15,2014-12-18 19:30:00,
2014-12-18 12:39:00,29.5,25.3,30.33,WNW,293,2.0,2.0,84,0.00,,,0.00,Wunderground v.1.15,2014-12-18 19:39:00,
2014-12-18 12:50:00,29.3,24.5,30.33,WSW,237,1.0,3.0,82,0.00,,,0.00,Wunderground v.1.15,2014-12-18 19:50:00,